DateTimeUTC,F1_A11,F1_S11,BsB_S11,BsG_S11,BsR_S11,BbsB_S11,BbsG_S11,BbsR_S11,BaB_A11,BaG_A11,BaR_A11,T_S11,U_S11,P_S11,T1_A11
2020-05-18T00:00:00Z,00000380,20000600,,,,,,,,,,25.9,01.1,0677.1,31.1
2020-05-18T00:01:00Z,00000380,20000600,,,,,,,,,,25.9,01.1,0677.1,31.1
2020-05-18T00:02:00Z,00000380,20000600,,,,,,,,,,25.9,01.1,0677.1,31.1
2020-05-18T00:03:00Z,00000380,60000600,,,,,,,,,,25.9,01.1,0677.1,31.1
2020-05-18T00:04:00Z,00000380,41000600,0000.54,0001.14,0001.10,0000.49,0000.15,0000.23,-000.09,0000.09,-000.09,25.8,01.0,0678.0,31.1
2020-05-18T00:05:00Z,00000380,01000600,-000.80,0000.56,-000.17,0001.65,0000.23,-000.15,-000.22,-000.14,-000.04,25.7,01.0,0678.1,31.1
2020-05-18T00:06:00Z,00000380,01000600,-001.05,0000.37,-000.26,0000.73,-000.14,-000.28,0000.06,0000.03,-000.06,25.7,01.0,0678.1,31.1
2020-05-18T00:07:00Z,00000380,01000600,-000.30,0000.28,0000.35,-000.68,-000.30,0000.14,,,,25.7,00.9,0678.0,31.1
2020-05-18T00:08:00Z,00000380,01000600,-000.21,0000.01,0000.34,0000.05,0000.07,-000.04,,,,25.7,00.9,0678.0,31.1
2020-05-18T00:09:00Z,00000380,01000600,0000.33,0000.43,0000.21,-000.05,0000.28,-000.13,,,,25.7,00.9,0678.1,31.1
2020-05-18T00:10:00Z,00000380,01000600,0000.67,0000.62,0000.90,0000.72,0000.04,0000.28,,,,25.7,01.1,0678.1,31.1
2020-05-18T00:11:00Z,00000380,01000600,0000.56,0000.34,0000.27,0001.61,0000.13,0000.38,,,,25.7,01.6,0678.1,31.1
2020-05-18T00:12:00Z,00000380,01000600,-001.55,0000.26,0000.48,-000.07,0000.33,0000.13,,,,25.7,01.2,0678.1,31.1
2020-05-18T00:13:00Z,00000380,01000600,-000.83,0000.49,0000.28,0000.61,-000.20,0000.23,,,,25.6,01.0,0678.1,31.1
2020-05-18T00:14:00Z,00000380,01000600,0000.70,0000.34,0000.19,-000.07,0000.02,-000.00,,,,25.6,01.0,0678.0,31.1
2020-05-18T00:15:00Z,00000380,01000600,0000.19,0000.40,0000.08,-000.08,-000.15,-000.18,-000.04,-000.14,-000.14,25.6,00.9,0678.1,31.1
2020-05-18T00:16:00Z,00000380,01000600,-000.60,0000.63,0000.05,0000.17,0000.19,0000.38,0000.21,0000.30,0000.22,25.6,00.9,0678.1,31.1
2020-05-18T00:17:00Z,00000380,01000600,-001.57,0000.24,0000.28,0000.11,0000.35,0000.33,0000.04,-000.22,-000.09,25.6,00.9,0678.1,31.1
2020-05-18T00:18:00Z,00000380,01000600,0000.51,0000.30,0000.38,0001.13,0000.31,0000.55,-000.25,0000.09,0000.03,25.6,00.9,0678.1,31.1
2020-05-18T00:19:00Z,00000380,01000600,0000.32,-000.25,-000.24,0000.56,0000.35,-000.23,-000.26,-000.48,-000.29,25.6,00.8,0678.1,31.1
2020-05-18T00:20:00Z,00000380,01000600,-000.53,0000.44,-000.10,0000.67,0000.16,-000.32,0000.08,0000.04,-000.02,25.6,00.7,0678.1,31.1
2020-05-18T00:21:00Z,00000380,01000600,0000.38,0000.37,0000.12,0000.90,0000.31,0000.06,-000.07,0000.00,-000.09,25.6,00.7,0678.1,31.1
2020-05-18T00:22:00Z,00000380,01000600,-000.15,0000.34,0000.60,0000.55,0000.19,0000.34,0000.01,-000.16,0000.08,25.6,00.7,0678.1,31.1
2020-05-18T00:23:00Z,00000380,01000600,-000.04,0000.45,0000.59,0000.43,0000.00,0000.31,-000.03,0000.09,-000.18,25.6,00.6,0678.1,31.1
2020-05-18T00:24:00Z,00000380,01000600,-000.07,-000.03,0000.12,0000.33,-000.17,0000.01,0000.05,-000.09,0000.01,25.6,00.6,0678.0,31.1
2020-05-18T00:25:00Z,00000380,01000600,-001.43,0000.84,0000.34,-000.30,-000.17,0000.03,-000.00,0000.02,-000.07,25.6,00.6,0678.0,31.1
2020-05-18T00:26:00Z,00000380,01000600,0000.47,0000.37,0000.10,-000.37,0000.13,0000.07,-000.06,-000.12,0000.02,25.6,00.6,0678.0,31.1
2020-05-18T00:27:00Z,00000380,01000600,0000.04,0000.57,0000.21,0000.81,-000.19,0000.30,0000.01,0000.01,-000.13,25.6,00.5,0678.0,31.1
2020-05-18T00:28:00Z,00000380,01000600,-001.52,0000.23,-000.06,0000.40,0000.04,-000.42,-000.10,-000.09,0000.10,25.6,00.4,0678.0,31.1
2020-05-18T00:29:00Z,00000380,01000600,-000.14,0000.48,0000.14,0000.01,0000.17,0000.10,-000.11,-000.06,-000.15,25.6,00.4,0678.0,31.1
2020-05-18T00:30:00Z,00000380,01000600,-000.33,0000.29,0000.05,-000.43,0000.49,-000.06,-000.10,-000.08,0000.01,25.6,00.3,0678.0,31.1
2020-05-18T00:31:00Z,00000380,01000600,-000.25,0000.71,0000.38,0000.31,0000.16,0000.10,0000.15,0000.02,0000.05,25.5,00.3,0678.0,31.1
2020-05-18T00:32:00Z,00000380,01000600,-000.63,0000.59,0000.41,0000.80,0000.15,0000.48,-000.10,-000.14,-000.30,25.6,00.3,0678.0,31.1
2020-05-18T00:33:00Z,00000380,01000600,-000.49,0000.15,0000.10,0000.48,0000.19,0000.06,0000.17,0000.14,0000.28,25.5,00.3,0678.0,31.1
2020-05-18T00:34:00Z,00000380,01000600,-000.42,0000.46,0000.35,0000.53,-000.08,0000.01,0000.02,0000.04,0000.15,25.5,00.4,0678.0,31.1
2020-05-18T00:35:00Z,00000380,01000600,-001.02,0000.40,0000.28,0000.10,0000.03,0000.30,0000.04,0000.20,0000.08,25.5,00.4,0678.0,31.1
2020-05-18T00:36:00Z,00000380,01000600,-000.43,0000.22,0000.73,-000.11,0000.44,-000.02,0000.06,-000.16,-000.23,25.5,00.4,0678.0,31.1
2020-05-18T00:37:00Z,00000380,01000600,-000.36,0000.34,0000.07,0000.23,0000.13,-000.14,0000.03,0000.08,0000.11,25.5,00.4,0678.0,31.1
2020-05-18T00:38:00Z,00000380,01000600,-000.54,0000.51,-000.21,0001.37,0000.09,0000.15,-000.11,0000.01,-000.05,25.5,00.4,0678.0,31.1
2020-05-18T00:39:00Z,00000380,01000600,0000.22,0000.02,0000.01,0001.62,-000.52,-000.14,0000.05,-000.04,0000.00,25.5,00.3,0678.0,31.1
2020-05-18T00:40:00Z,00000380,01000600,-000.35,0000.13,0000.23,0000.21,0000.36,0000.25,-000.08,-000.26,-000.14,25.5,00.3,0678.0,31.1
2020-05-18T00:41:00Z,00000380,01000600,0000.61,0000.36,0000.17,-000.26,0000.01,-000.15,-000.01,0000.30,0000.03,25.5,00.3,0678.0,31.1
2020-05-18T00:42:00Z,00000380,01000600,-000.71,0000.59,0000.29,0001.23,0000.07,-000.03,-000.01,-000.19,-000.11,25.5,00.3,0678.0,31.1
2020-05-18T00:43:00Z,00000380,01000600,0000.35,0000.25,0000.15,0000.69,0000.27,-000.03,0000.07,0000.08,0000.05,25.5,00.2,0678.0,31.1
2020-05-18T00:44:00Z,00000380,01000600,0001.30,0000.54,-000.24,-000.13,0000.14,-000.38,0000.01,-000.02,-000.06,25.5,00.2,0677.9,31.1
2020-05-18T00:45:00Z,00000380,01000600,-000.57,0000.07,0000.14,-000.13,0000.08,0000.30,0000.04,-000.13,0000.12,25.5,00.2,0677.9,31.1
2020-05-18T00:46:00Z,00000380,01000600,0000.56,-000.14,0000.22,0001.00,0000.01,0000.27,0000.16,0000.40,0000.00,25.5,00.3,0677.9,31.1
2020-05-18T00:47:00Z,00000380,01000600,-000.57,0000.37,0000.27,0001.26,0000.10,0000.13,-000.14,-000.11,0000.17,25.5,00.3,0677.9,31.1
2020-05-18T00:48:00Z,00000380,01000600,0000.96,0000.69,0000.39,0000.42,-000.12,0000.29,0000.08,-000.15,-000.14,25.5,00.2,0677.9,31.1
2020-05-18T00:49:00Z,00000380,01000600,0000.66,0000.40,0000.22,0001.07,0000.26,0000.06,-000.00,0000.06,0000.05,25.5,00.2,0677.9,31.1
2020-05-18T00:50:00Z,00000380,01000600,-001.57,0000.35,0000.48,0000.23,0000.00,-000.13,0000.09,0000.05,-000.04,25.5,00.3,0677.9,31.1
2020-05-18T00:51:00Z,00000380,01000600,0001.10,0000.31,0000.39,0001.43,-000.05,-000.00,0000.00,0000.12,0000.18,25.5,00.2,0677.9,31.1
2020-05-18T00:52:00Z,00000380,01000600,-000.90,-000.01,0000.04,0000.15,-000.10,0000.08,0000.09,-000.07,-000.09,25.5,00.2,0677.9,31.1
2020-05-18T00:53:00Z,00000380,01000600,-001.17,-000.07,0000.09,0001.38,0000.22,-000.00,-000.05,-000.11,-000.02,25.5,00.2,0677.9,31.1
2020-05-18T00:54:00Z,00000380,01000600,-000.53,0000.81,0000.78,0000.55,0000.30,0000.15,0000.17,0000.23,0000.06,25.4,00.2,0677.9,31.1
2020-05-18T00:55:00Z,00000380,01000600,0000.51,0000.54,0000.23,0000.88,0000.19,-000.07,-000.05,-000.04,-000.01,25.4,00.3,0677.9,31.1
2020-05-18T00:56:00Z,00000380,01000600,0000.39,0000.77,0000.28,0000.40,-000.14,0000.30,-000.03,-000.06,-000.08,25.4,00.2,0677.9,31.1
2020-05-18T00:57:00Z,00000380,41000600,,,,,,,,,,25.5,00.0,0677.9,31.1
2020-05-18T00:58:00Z,00000380,61000600,,,,,,,,,,25.5,00.4,0676.9,31.1
2020-05-18T00:59:00Z,00000380,21000600,,,,,,,,,,25.6,00.2,0676.9,31.1
2020-05-18T01:00:00Z,00000380,21000600,,,,,,,,,,25.7,00.2,0676.9,31.1
2020-05-18T01:01:00Z,00000380,21000600,,,,,,,,,,25.7,00.2,0676.9,31.1
2020-05-18T01:02:00Z,00000380,21000600,,,,,,,,,,25.7,00.1,0676.9,31.1
2020-05-18T01:03:00Z,00000388,61000608,,,,,,,,,,25.7,00.0,0676.9,31.1
2020-05-18T01:04:00Z,00000388,41000608,-001.31,-000.11,-000.57,0000.57,-000.08,-000.16,-000.08,-000.09,-000.17,25.5,00.1,0677.9,31.1
2020-05-18T01:05:00Z,00000388,01000608,0000.19,-000.39,0000.63,-000.09,-000.10,-000.21,0000.08,-000.00,0000.03,25.4,00.1,0677.9,31.1
2020-05-18T01:06:00Z,00000388,01000608,-000.80,-000.44,0000.34,-000.14,0000.32,0000.79,0000.07,0000.03,-000.00,25.4,00.2,0677.9,31.1
2020-05-18T01:07:00Z,00000388,01000608,0000.09,0000.12,0000.07,0000.10,0000.49,-000.20,0000.08,0000.18,0000.03,25.4,00.1,0677.9,31.1
2020-05-18T01:08:00Z,00000388,01000608,-000.48,-000.15,0000.10,-000.86,0000.03,0000.11,0000.05,0000.18,0000.15,25.4,00.1,0677.9,31.1
2020-05-18T01:09:00Z,00000388,01000608,-000.94,0000.07,-000.19,-000.34,0000.21,-000.61,-000.04,-000.14,-000.11,25.4,00.2,0677.9,31.1
2020-05-18T01:10:00Z,00000388,01000608,-000.42,-000.59,-000.04,0000.21,0000.09,0000.00,0000.04,-000.18,-000.00,25.4,00.1,0677.9,31.1
2020-05-18T01:11:00Z,00000388,01000608,-000.19,0000.02,-000.15,0000.18,0000.31,-000.29,0000.16,0000.19,0000.01,25.4,00.1,0677.9,31.1
2020-05-18T01:12:00Z,00000388,01000608,0000.48,-000.18,0000.06,-000.19,0000.39,0000.20,-000.17,-000.21,0000.04,25.3,00.1,0677.9,31.1
2020-05-18T01:13:00Z,00000388,01000608,0000.49,0000.09,0000.21,-001.26,-000.29,0000.74,0000.07,0000.14,0000.01,25.3,00.2,0677.9,31.1
2020-05-18T01:14:00Z,00000388,01000608,-000.24,-000.25,-000.19,0000.09,-000.04,-000.38,-000.06,-000.05,-000.04,25.3,00.2,0677.9,31.1
2020-05-18T01:15:00Z,00000388,01000608,-000.41,0000.08,0000.04,-000.77,-000.07,-000.23,0000.07,0000.09,-000.11,25.3,00.2,0677.9,31.1
2020-05-18T01:16:00Z,00000388,01000608,-000.11,-000.11,0000.07,0000.17,0000.08,0000.32,-000.03,0000.05,0000.19,25.3,00.1,0677.9,31.1
2020-05-18T01:17:00Z,00000388,01000608,0000.20,0000.37,-000.26,-000.46,0000.29,-000.14,0000.07,-000.12,-000.08,25.3,00.1,0677.9,31.1
2020-05-18T01:18:00Z,00000388,01000608,0000.51,0000.03,0000.46,0000.49,-000.21,0000.20,-000.08,-000.04,0000.10,25.3,00.1,0677.9,31.1
2020-05-18T01:19:00Z,00000388,01000608,0000.30,0000.31,0000.38,0000.25,0000.22,0000.08,0000.02,-000.01,-000.18,25.3,00.2,0677.9,31.1
2020-05-18T01:20:00Z,00000388,01000608,0000.01,-000.46,-000.38,0000.29,0000.07,-000.49,0000.05,0000.11,0000.18,25.3,00.1,0677.9,31.1
2020-05-18T01:21:00Z,00000388,01000608,0000.28,-000.35,-000.01,-000.22,-000.19,-000.40,0000.17,0000.12,-000.04,25.3,00.1,0677.9,31.1
2020-05-18T01:22:00Z,00000388,01000608,-000.16,-000.31,0000.03,-000.28,0000.08,-000.18,-000.14,-000.04,0000.02,25.3,00.1,0677.9,31.1
2020-05-18T01:23:00Z,00000388,01000608,0000.11,-000.07,-000.12,0000.65,0000.23,0000.09,0000.02,0000.06,-000.05,25.3,00.1,0677.9,31.1
2020-05-18T01:24:00Z,00000388,01000608,-000.22,0000.26,0000.65,-000.25,0000.12,-000.13,-000.04,-000.07,0000.09,25.3,00.1,0677.9,31.1
2020-05-18T01:25:00Z,00000388,01000608,-001.13,0000.27,-000.12,-000.62,-000.08,-000.44,0000.02,0000.06,-000.01,25.2,00.1,0677.9,31.1
2020-05-18T01:26:00Z,00000388,01000608,-000.40,-000.25,-000.27,0000.63,-000.27,-000.24,0000.14,0000.01,-000.09,25.2,00.0,0677.9,31.1
2020-05-18T01:27:00Z,00000388,01000608,-000.68,0000.12,-000.10,-000.87,0000.00,0000.03,-000.03,-000.06,0000.06,25.2,00.1,0677.9,31.1
2020-05-18T01:28:00Z,00000388,01000608,-000.13,-000.20,0000.50,-000.01,0000.07,-000.21,0000.03,0000.11,-000.09,25.2,00.1,0677.9,31.1
2020-05-18T01:29:00Z,00000388,01000608,0000.16,0000.04,0000.09,-000.23,0000.08,-000.37,-000.10,-000.19,-000.17,25.2,00.1,0677.9,31.1
2020-05-18T01:30:00Z,00000388,01000608,-000.05,0000.22,-000.17,0000.37,0000.28,-000.38,0000.04,0000.02,0000.32,25.2,00.1,0677.9,31.1
2020-05-18T01:31:00Z,00000388,01000608,-000.31,0000.29,0000.04,0000.12,0000.18,0000.03,0000.07,-000.07,-000.19,25.2,00.0,0677.9,31.1
2020-05-18T01:32:00Z,00000388,01000608,0000.92,0000.16,-000.02,0000.64,0000.09,0000.49,-000.06,0000.22,0000.10,25.2,00.0,0677.9,31.1
2020-05-18T01:33:00Z,00000388,01000608,-000.27,-000.06,-000.44,0000.31,0000.20,-000.55,-000.10,-000.20,-000.21,25.2,00.0,0677.9,31.1
2020-05-18T01:34:00Z,00000388,01000608,0000.38,-000.49,0000.27,0000.31,-000.28,-000.08,0000.11,0000.15,0000.09,25.2,00.0,0677.9,31.1
2020-05-18T01:35:00Z,00000388,01000608,-000.57,0000.35,-000.60,-000.27,-000.09,0000.02,0000.09,-000.11,0000.02,25.2,00.0,0677.9,31.1
2020-05-18T01:36:00Z,00000388,01000608,0001.09,-000.29,0000.27,0000.30,0000.03,0000.19,-000.01,0000.08,0000.17,25.2,00.0,0677.9,31.1
2020-05-18T01:37:00Z,00000388,01000608,0001.13,-000.05,0000.07,-000.04,-000.13,0000.11,-000.08,0000.07,-000.09,25.2,00.0,0677.9,31.1
2020-05-18T01:38:00Z,00000388,01000608,0000.43,-000.06,-000.41,-000.37,0000.29,0000.15,0000.21,-000.03,0000.04,25.2,00.1,0677.8,31.1
2020-05-18T01:39:00Z,00000388,01000608,-000.08,-000.51,-000.11,-000.74,-000.05,0000.20,-000.11,0000.06,0000.03,25.1,00.0,0677.8,31.1
2020-05-18T01:40:00Z,00000388,01000608,0001.15,-000.06,0000.35,-000.01,0000.21,0000.19,-000.10,-000.06,-000.05,25.1,00.0,0677.8,31.1
2020-05-18T01:41:00Z,00000388,01000608,-000.60,-000.07,0000.10,-000.04,0000.25,-000.07,0000.12,-000.04,0000.04,25.1,00.0,0677.8,31.1
2020-05-18T01:42:00Z,00000388,01000608,-000.76,0000.54,-000.18,0000.19,-000.05,-000.31,-000.06,0000.04,-000.03,25.1,00.0,0677.8,31.1
2020-05-18T01:43:00Z,00000388,01000608,0000.12,-000.21,0000.17,-000.47,0000.03,-000.06,-000.02,-000.01,-000.11,25.1,00.0,0677.8,31.1
2020-05-18T01:44:00Z,00000388,01000608,0000.62,-000.08,0000.17,-000.21,0000.42,-000.22,0000.08,-000.03,0000.20,25.1,00.0,0677.8,31.1
2020-05-18T01:45:00Z,00000388,01000608,-000.29,0000.36,0000.61,-000.15,-000.22,0000.15,0000.02,-000.06,-000.09,25.1,00.0,0677.8,31.1
2020-05-18T01:46:00Z,00000388,01000608,0000.11,0000.23,-000.11,-000.32,-000.23,-000.30,-000.01,0000.13,-000.02,25.1,00.0,0677.8,31.1
2020-05-18T01:47:00Z,00000388,01000608,-000.38,-000.35,0000.01,0000.01,0000.08,0000.34,0000.08,-000.09,-000.04,25.1,00.0,0677.8,31.1
2020-05-18T01:48:00Z,00000388,01000608,0000.22,-001.09,0000.59,-000.00,0000.05,0000.10,-000.20,0000.17,-000.19,25.1,00.0,0677.8,31.1
2020-05-18T01:49:00Z,00000388,01000608,0000.59,-000.05,0000.06,-000.05,0000.39,-000.03,-000.09,-000.34,0000.06,25.1,00.0,0677.8,31.1
2020-05-18T01:50:00Z,00000388,01000608,-000.71,-000.15,0000.48,-000.57,0000.12,0000.21,0000.16,0000.07,-000.05,25.1,00.0,0677.8,31.1
2020-05-18T01:51:00Z,00000388,01000608,0001.16,-000.65,0000.33,-000.16,0000.48,0000.04,-000.12,0000.03,-000.02,25.1,00.0,0677.8,31.1
2020-05-18T01:52:00Z,00000388,01000608,-001.45,-000.67,0000.23,0000.30,-000.30,0000.17,0000.06,-000.17,-000.06,25.1,00.0,0677.8,31.1
2020-05-18T01:53:00Z,00000388,01000608,0000.92,-000.21,0000.64,-000.68,0000.62,0000.32,-000.00,0000.24,0000.17,25.1,00.0,0677.8,31.1
2020-05-18T01:54:00Z,00000388,01000608,0000.03,0000.22,0000.22,-000.35,0000.68,0000.13,-000.02,0000.08,0000.03,25.1,00.0,0677.8,31.1
2020-05-18T01:55:00Z,00000388,01000608,-000.49,-000.40,0000.14,0000.48,0000.04,0000.05,0000.05,-000.23,-000.24,25.0,00.0,0677.8,31.1
2020-05-18T01:56:00Z,00000388,01000608,-000.37,0000.15,0000.26,0000.84,0000.26,0000.10,0000.10,0000.01,0000.10,25.1,00.0,0677.8,31.1
2020-05-18T01:57:00Z,00000388,41000608,,,,,,,,,,25.1,00.0,0677.9,31.1
2020-05-18T01:58:00Z,00000388,61000608,,,,,,,,,,25.2,00.0,0676.9,31.1
2020-05-18T01:59:00Z,00000388,21000608,,,,,,,,,,25.3,00.0,0676.8,31.1
2020-05-18T02:00:00Z,00000388,21000608,,,,,,,,,,25.3,00.0,0676.8,31.1
2020-05-18T02:01:00Z,00000388,21000608,,,,,,,,,,25.3,00.0,0676.8,31.1
2020-05-18T02:02:00Z,00000388,21000608,,,,,,,,,,25.3,00.0,0676.8,31.1
2020-05-18T02:03:00Z,00000388,61000608,,,,,,,,,,25.3,00.0,0676.8,31.1
2020-05-18T02:04:00Z,00000388,41000608,0001.04,-000.07,0000.36,-000.10,0000.22,-000.29,-000.08,-000.06,0000.01,25.1,00.0,0677.7,31.1
2020-05-18T02:05:00Z,00000388,01000608,0000.97,0000.09,-000.59,0001.09,0000.14,-000.42,0000.13,0000.14,-000.02,25.1,00.0,0677.8,31.1
2020-05-18T02:06:00Z,00000388,01000608,0000.57,0000.21,0000.24,-000.16,0000.13,-000.06,-000.19,-000.06,0000.07,25.0,00.0,0677.8,31.1
2020-05-18T02:07:00Z,00000388,01000608,0000.85,-000.56,-000.68,-000.52,-000.08,0000.10,0000.09,0000.08,0000.00,25.0,00.0,0677.8,31.1
2020-05-18T02:08:00Z,00000388,01000608,0000.60,0000.39,-000.35,-000.41,0000.10,-000.24,0000.02,-000.06,-000.09,25.0,00.0,0677.8,31.1
2020-05-18T02:09:00Z,00000388,01000608,0001.29,0000.32,-000.22,-000.21,0000.20,0000.07,-000.06,-000.04,-000.04,25.0,00.0,0677.8,31.1
2020-05-18T02:10:00Z,00000388,01000608,0000.66,-000.12,-000.02,-000.08,0000.14,-000.14,0000.08,-000.02,-000.09,25.0,00.0,0677.8,31.0
2020-05-18T02:11:00Z,00000388,01000608,0001.02,0000.46,-000.39,-000.13,0000.20,-000.18,-000.10,-000.02,0000.12,25.0,00.0,0677.8,31.1
2020-05-18T02:12:00Z,00000388,01000608,0000.31,-000.09,0000.05,-000.40,0000.40,-000.15,-000.04,-000.23,-000.03,25.0,00.0,0677.8,31.1
2020-05-18T02:13:00Z,00000388,01000608,0000.64,0000.02,0000.29,0000.44,0000.56,-000.08,-000.08,0000.15,-000.17,25.0,00.0,0677.8,31.1
2020-05-18T02:14:00Z,00000388,01000608,0000.79,-000.65,-000.16,0000.30,0000.10,0000.16,0000.27,0000.19,0000.09,25.0,00.0,0677.8,31.1
2020-05-18T02:15:00Z,00000388,01000608,0000.23,0000.34,0000.21,-000.35,0000.21,-000.26,0000.88,0000.85,0001.08,24.9,00.1,0677.8,31.1
2020-05-18T02:16:00Z,00000388,01000608,0000.36,0000.06,0000.12,-000.74,0000.24,0000.20,-000.28,-000.15,-000.26,25.0,00.0,0677.8,31.1
2020-05-18T02:17:00Z,00000388,01000608,0000.20,0000.41,0000.07,0000.16,0000.20,-000.11,0000.44,0000.25,0000.08,24.9,00.1,0677.8,31.1
2020-05-18T02:18:00Z,00000388,01000608,0000.69,0000.26,-000.21,0000.61,-000.01,-000.15,-000.56,-000.22,-000.25,24.9,00.0,0677.8,31.0
2020-05-18T02:19:00Z,00000388,01000608,0000.21,0000.03,-000.27,-000.69,-000.05,-000.43,-000.00,-000.22,0000.13,24.9,00.0,0677.8,31.1
2020-05-18T02:20:00Z,00000388,01000608,0001.05,0000.31,-000.13,-000.16,-000.05,0000.15,-000.01,-000.07,-000.15,24.9,00.0,0677.8,31.0
2020-05-18T02:21:00Z,00000388,01000608,0000.74,-000.12,-000.30,0000.04,-000.01,0000.23,0000.05,0000.15,-000.07,24.9,00.0,0677.8,31.0
2020-05-18T02:22:00Z,00000388,01000608,0000.08,-000.03,0000.04,0000.05,0000.21,-000.19,-000.12,-000.11,-000.06,24.9,00.0,0677.8,31.1
2020-05-18T02:23:00Z,00000388,01000608,0000.19,0000.00,-000.05,-000.39,-000.09,-000.43,-000.10,-000.04,-000.02,24.9,00.0,0677.8,31.1
2020-05-18T02:24:00Z,00000388,01000608,0000.28,0000.30,-000.07,0000.52,-000.08,0000.37,0000.02,-000.12,-000.12,24.9,00.0,0677.8,31.0
2020-05-18T02:25:00Z,00000388,01000608,0001.30,0000.10,-000.39,0000.15,0000.20,0000.14,-000.08,-000.06,0000.01,24.9,00.0,0677.8,31.1
2020-05-18T02:26:00Z,00000388,01000608,0000.41,0000.29,-000.11,-000.08,0000.04,-000.39,0000.03,0000.19,0000.14,24.9,00.0,0677.8,31.1
2020-05-18T02:27:00Z,00000388,01000608,0000.26,-000.14,-000.00,-000.37,0000.19,0000.21,0000.10,-000.10,-000.03,24.9,00.0,0677.8,31.0
2020-05-18T02:28:00Z,00000388,01000608,0000.43,0000.10,-000.22,-000.20,0000.27,-000.03,0000.03,0000.20,0000.01,24.9,00.0,0677.8,31.0
2020-05-18T02:29:00Z,00000388,01000608,0001.20,0000.18,-000.20,-000.41,0000.21,0000.24,-000.12,-000.21,0000.08,24.9,00.0,0677.7,31.0
2020-05-18T02:30:00Z,00000388,01000608,0000.98,-000.05,-000.02,-000.18,0000.30,0000.30,0000.06,0000.04,0000.13,24.9,00.0,0677.8,31.0
2020-05-18T02:31:00Z,00000388,01000608,0001.04,0000.13,0000.02,-000.31,0000.43,-000.08,0000.20,-000.01,-000.01,24.8,00.0,0677.7,31.0
2020-05-18T02:32:00Z,00000388,01000608,0000.42,-000.05,-000.15,-000.30,0000.26,0000.68,-000.09,0000.11,-000.07,24.9,00.0,0677.7,31.0
2020-05-18T02:33:00Z,00000388,01000608,0000.48,0000.08,-000.17,-000.24,0000.33,0000.11,0000.13,-000.02,0000.02,24.9,00.0,0677.8,31.1
2020-05-18T02:34:00Z,00000388,01000608,0000.92,0000.08,0000.14,0000.01,0000.53,0000.13,-000.13,0000.18,0000.03,24.8,00.0,0677.7,31.0
2020-05-18T02:35:00Z,00000388,01000608,0001.70,-000.29,0000.05,0000.14,-000.17,-000.06,0000.10,-000.06,0000.02,24.8,00.0,0677.7,31.0
2020-05-18T02:36:00Z,00000388,01000608,0001.27,-000.31,-000.10,-000.58,0000.09,0000.25,-000.03,0000.23,0000.08,24.8,00.0,0677.7,31.0
2020-05-18T02:37:00Z,00000388,01000608,0000.34,-000.15,0000.09,-000.25,0000.21,-000.10,0000.08,-000.19,-000.01,24.8,00.0,0677.7,31.0
2020-05-18T02:38:00Z,00000388,01000608,0000.04,-000.16,0000.36,-000.73,-000.30,0000.09,-000.04,0000.18,-000.03,24.8,00.0,0677.7,31.0
2020-05-18T02:39:00Z,00000388,01000608,0001.04,-000.01,-000.10,-000.29,-000.19,0000.08,0000.08,-000.10,0000.09,24.8,00.0,0677.7,31.0
2020-05-18T02:40:00Z,00000388,01000608,0000.64,0000.33,0000.19,-000.02,0000.08,0000.10,0000.05,0000.07,0000.13,24.8,00.0,0677.7,31.0
2020-05-18T02:41:00Z,00000388,01000608,0000.71,-000.11,-000.09,0000.06,0000.29,-000.06,-000.01,0000.06,0000.04,24.8,00.0,0677.7,31.0
2020-05-18T02:42:00Z,00000388,01000608,0001.51,-000.17,-000.14,-000.24,-000.31,0000.27,-000.01,-000.04,-000.06,24.8,00.0,0677.7,31.0
2020-05-18T02:43:00Z,00000388,01000608,0001.09,0000.06,0000.06,-000.52,0000.18,-000.10,0000.10,0000.13,-000.05,24.8,00.0,0677.7,31.0
2020-05-18T02:44:00Z,00000388,01000608,0000.18,0000.07,0000.04,-000.81,-000.01,0000.21,-000.03,0000.00,0000.08,24.8,00.0,0677.7,31.0
2020-05-18T02:45:00Z,00000388,01000608,0001.31,-000.10,0000.18,0000.21,0000.25,-000.14,0001.36,0001.35,0001.13,24.8,00.0,0677.7,31.0
2020-05-18T02:46:00Z,00000388,01000608,0000.65,-000.26,0000.18,-000.25,-000.33,-000.12,-000.45,-000.62,-000.42,24.8,00.1,0677.7,31.0
2020-05-18T02:47:00Z,00000388,01000608,0000.41,0000.08,-000.15,-000.43,-000.10,0000.06,-000.10,-000.12,-000.29,24.8,00.0,0677.7,31.0
2020-05-18T02:48:00Z,00000388,01000608,0001.20,-000.07,0000.59,-000.82,-000.02,-000.26,-000.19,0000.15,0000.05,24.8,00.0,0677.7,31.0
2020-05-18T02:49:00Z,00000388,01000608,0000.43,-000.14,0000.01,-000.85,0000.33,0000.20,0000.12,0000.02,0000.05,24.8,00.0,0677.7,31.0
2020-05-18T02:50:00Z,00000388,01000608,0000.60,0000.40,0000.06,-000.16,0000.31,-000.38,-000.18,-000.16,-000.12,24.8,00.0,0677.7,31.0
2020-05-18T02:51:00Z,00000388,01000608,0000.85,-000.49,0000.16,-000.19,0000.18,-000.09,0000.12,-000.07,0000.10,24.7,00.0,0677.7,31.0
2020-05-18T02:52:00Z,00000388,01000608,0001.02,-000.49,-000.15,-000.36,-000.13,-000.11,-000.14,0000.03,-000.01,24.8,00.0,0677.7,31.1
2020-05-18T02:53:00Z,00000388,01000608,-000.32,0000.11,0000.34,-000.96,-000.07,-000.10,0000.57,0000.42,0000.40,24.8,00.0,0677.7,31.0
2020-05-18T02:54:00Z,00000388,01000608,0000.38,0000.20,-000.20,-000.63,0000.32,0000.05,-000.31,-000.07,-000.19,24.8,00.0,0677.7,31.0
2020-05-18T02:55:00Z,00000388,01000608,0001.63,-000.31,-000.49,-000.58,0000.51,-000.10,0000.17,-000.01,0000.04,24.7,00.0,0677.7,31.0
2020-05-18T02:56:00Z,00000388,01000608,0001.96,-000.23,-000.63,-000.70,-000.40,-000.80,-000.15,-000.04,-000.20,24.7,00.0,0677.6,31.0
2020-05-18T02:57:00Z,00000388,41000608,,,,,,,,,,24.7,00.0,0677.6,31.0
2020-05-18T02:58:00Z,00000388,61000608,,,,,,,,,,24.8,00.0,0676.7,31.0
2020-05-18T02:59:00Z,00000388,21000608,,,,,,,,,,24.9,00.0,0676.7,31.0
2020-05-18T03:00:00Z,00000388,21000608,,,,,,,,,,25.0,00.0,0676.7,31.0
2020-05-18T03:01:00Z,00000388,21000608,,,,,,,,,,25.0,00.0,0676.7,31.0
2020-05-18T03:02:00Z,00000388,21000608,,,,,,,,,,25.0,00.0,0676.7,31.0
2020-05-18T03:03:00Z,00000388,61000608,,,,,,,,,,25.0,00.0,0676.7,31.0
2020-05-18T03:04:00Z,00000388,41000608,-001.28,0000.40,-000.10,0001.02,0000.08,0000.49,-000.08,0000.09,-000.07,24.8,00.0,0677.6,31.0
2020-05-18T03:05:00Z,00000388,01000608,0000.28,0000.45,-000.15,0000.39,0000.34,-000.14,0000.25,-000.01,-000.01,24.7,00.0,0677.6,31.0
2020-05-18T03:06:00Z,00000388,01000608,0000.73,-000.25,0000.28,-001.16,0000.44,-000.44,-000.09,-000.05,0000.00,24.7,00.0,0677.7,31.0
2020-05-18T03:07:00Z,00000388,01000608,-000.51,0000.41,0000.75,0000.21,0000.12,-000.02,0000.05,-000.01,0000.09,24.7,00.0,0677.7,31.0
2020-05-18T03:08:00Z,00000388,01000608,0001.57,0000.56,0000.31,-000.55,0000.23,0000.07,-000.06,0000.04,0000.00,24.7,00.0,0677.6,31.0
2020-05-18T03:09:00Z,00000388,01000608,0001.14,0000.48,0000.02,-000.26,-000.50,0000.10,0000.12,-000.13,-000.15,24.7,00.0,0677.7,31.0
2020-05-18T03:10:00Z,00000388,01000608,0000.68,-000.28,-000.25,0000.21,0000.11,-000.15,-000.02,0000.07,0000.07,24.7,00.0,0677.7,31.0
2020-05-18T03:11:00Z,00000388,01000608,0000.25,-000.13,0000.38,-000.12,0000.30,-000.14,-000.03,0000.13,0000.07,24.7,00.0,0677.7,31.0